Miscellaneous Local Product
Issued by NWS Hastings, NE

Home | Current Version | Previous Version | Text Only | Print | Product List | Glossary On
Versions: 1 2 3 4 5 6 7 8 9 10 11 12 13 14 15 16 17 18 19 20 21 22 23 24 25 26 27 28 29 30 31 32 33 34 35 36 37 38 39 40 41 42 43 44 45 46 47 48 49 50
022
AXUS43 KGID 201602
MISGRI

GID CWA HOURLY WEATHER ROUNDUP
NATIONAL WEATHER SERVICE HASTINGS NE
1000 AM CST MON NOV 20 2017

NOTE: "FAIR" INDICATES FEW OR NO CLOUDS BELOW 12,000 FEET WITH NO
SIGNIFICANT WEATHER AND/OR OBSTRUCTIONS TO VISIBILITY.

...SOUTH CENTRAL NEBRASKA...

CITY           SKY/WX    TMP DP  RH WIND       PRES   REMARKS
GRAND ISLAND   CLOUDY    47  26  44 SW15      29.70F
KEARNEY        CLOUDY    45  24  43 SW9       29.72F
HASTINGS       SUNNY     41  26  55 SW9       29.73F
ORD            CLOUDY    41  30  65 E5        29.64F
YORK           CLOUDY    41  27  56 SW12      29.73S
AURORA         CLOUDY    41  27  57 SW13      29.70F
LEXINGTON      CLOUDY    38  24  55 W3        29.72F
HOLDREGE       CLOUDY    43  26  50 W7        29.73S
HEBRON         SUNNY     46  23  40 SW17G23   29.77F

...NEBRASKA PANHANDLE...

CITY           SKY/WX    TMP DP  RH WIND       PRES   REMARKS
CHADRON        CLOUDY    45  19  35 SW6       29.67S
ALLIANCE       SUNNY     56  10  16 W21G26    29.68S
SCOTTSBLUFF    CLOUDY    59   3  10 W31G46    29.70S
SIDNEY         SUNNY     59   6  12 W16G25    29.77R

...WESTERN AND NORTH CENTRAL NEBRASKA...

CITY           SKY/WX    TMP DP  RH WIND       PRES   REMARKS
VALENTINE      CLOUDY    43  19  38 SW10      29.61S
AINSWORTH      CLOUDY    46  19  34 SW10      29.60F
ONEILL         CLOUDY    44  23  42 W12       29.60F
BROKEN BOW     CLOUDY    48  21  34 W13       29.68S
IMPERIAL       SUNNY     49  15  25 W10       29.76S
NORTH PLATTE   CLOUDY    37  27  67 NW7       29.73F WCI  32
MCCOOK         CLOUDY    38  25  59 W10       29.77F WCI  31

...EASTERN NEBRASKA...

CITY           SKY/WX    TMP DP  RH WIND       PRES   REMARKS
NORFOLK        CLOUDY    45  24  43 SW9       29.62F
SO SIOUX CITY  CLOUDY    42  29  59 SW7       29.65S
TEKAMAH        SUNNY     45  27  49 S17       29.68F
COLUMBUS       CLOUDY    44  26  49 SW13G18   29.68F
ALBION         CLOUDY    43  26  51 SW5       29.64F
OMAHA EPPLEY   PTSUNNY   48  25  40 SW14      29.73S
OFFUTT AFB     SUNNY     48  25  40 SW10G18   29.73F
MILLARD        SUNNY     49  26  41 SW10      29.73S
LINCOLN        SUNNY     47  24  40 SW18      29.75F
NEBRASKA CITY  SUNNY     51  27  40 SW18G28   29.76F
BEATRICE       SUNNY     47  25  42 SW20G26   29.78F
FALLS CITY     SUNNY     51  27  39 S15G25    29.81F

...NORTHERN KANSAS...

CITY           SKY/WX    TMP DP  RH WIND       PRES   REMARKS
GOODLAND       SUNNY     59  11  15 W12       29.80F
HILL CITY      CLOUDY    44  27  51 SW5       29.76F
NORTON         SUNNY     45  25  45 SW7       29.75F
PHILLIPSBURG   SUNNY     39  25  56 SW3       29.78F
SMITH CENTER   SUNNY     37  25  60 W5        29.79F WCI  34
HAYS           SUNNY     41  23  48 SW8       29.81F
RUSSELL        SUNNY     43  23  45 SW17      29.80F
CONCORDIA      SUNNY     46  23  40 SW17      29.80F
SALINA         SUNNY     51  24  34 SW21      29.86F
TOPEKA         SUNNY     52  28  39 S12       29.89F



USA.gov is the U.S. government's official web portal to all federal, state and local government web resources and services.